Weather History for KRUE - September, 2012

Change the Weather History Date:

Sunday, September 16, 2012

  Actual Average Record
Temperature  
Mean Temperature 72 °F -  
Max Temperature 75 °F - - ()
Min Temperature 68 °F - - ()
Cooling Degree Days 6    
Growing Degree Days 22 (Base 50)    
Moisture  
Dew Point 68 °F    
Average Humidity 91    
Maximum Humidity 97    
Minimum Humidity 78    
Precipitation  
Precipitation 0.76 in - - ()
Sea Level Pressure  
Sea Level Pressure 30.04 in    
Wind  
Wind Speed 2 mph (East)    
Max Wind Speed 7 mph    
Max Gust Speed -    
Visibility 4 miles    
Events Rain    
Averages and records for this station are not official NWS values.
T = Trace of Precipitation, MM = Missing Value Source: NWS Daily Summary

Daily Weather History Graph

Daily Weather History Graph

Search for Another Location

Airport or City:

Trip Planner

Search our weather history database for the weather conditions in past years. The results will help you decide how hot, cold, wet, or windy it might be!

Date:

Astronomy

Sep. 16, 2012 Rise Set
Actual Time 6:56 AM CDT 7:17 PM CDT
Civil Twilight 6:30 AM CDT 7:42 PM CDT
Nautical Twilight 6:01 AM CDT 8:12 PM CDT
Astronomical Twilight 5:30 AM CDT 8:42 PM CDT
Moon 7:32 AM CDT (9/16) 7:27 PM CDT (9/16)
Length of Visible Light 13h 11m
Length of Day
12h 20m
New Moon, 0% of the Moon is Illuminated
Sep 16
New Moon
Sep 22
First Quarter
Sep 29
Full
Oct 8
Last Quarter
Oct 15
New

Hourly Weather History & Observations

Time (CDT) Temp. Dew Point Humidity Pressure Visibility Wind Dir Wind Speed Gust Speed Precip Events Conditions
12:01 AM 69.8 °F 68.0 °F 94% 30.09 in 4.0 mi East 3.5 mph - N/A   Overcast
12:53 AM 70.0 °F 68.0 °F 93% 30.06 in 3.0 mi East 3.5 mph - 0.00 in Rain Light Rain
1:32 AM 69.8 °F 66.2 °F 88% 30.08 in 2.5 mi East 5.8 mph - 0.03 in Rain Rain
1:35 AM 69.8 °F 66.2 °F 88% 30.08 in 3.0 mi Variable 3.5 mph - 0.03 in Rain Rain
1:45 AM 69.8 °F 66.2 °F 88% 30.08 in 2.5 mi Variable 4.6 mph - 0.05 in Rain Rain
1:53 AM 69.1 °F 66.9 °F 93% 30.07 in 2.0 mi Variable 3.5 mph - 0.09 in Rain Heavy Rain
1:59 AM 69.8 °F 66.2 °F 88% 30.08 in 2.0 mi East 4.6 mph - 0.02 in Rain Rain
2:13 AM 69.8 °F 66.2 °F 88% 30.07 in 2.0 mi East 5.8 mph - 0.07 in Rain Rain
2:53 AM 68.0 °F 66.9 °F 96% 30.05 in 3.0 mi Variable 3.5 mph - 0.26 in Rain Light Rain
3:01 AM 68.0 °F 66.2 °F 94% 30.06 in 2.0 mi Variable 4.6 mph - 0.02 in Rain Heavy Rain
3:11 AM 68.0 °F 66.2 °F 94% 30.06 in 4.0 mi East 4.6 mph - 0.02 in   Overcast
3:26 AM 68.0 °F 66.2 °F 94% 30.06 in 4.0 mi Variable 5.8 mph - 0.02 in Rain Light Rain
3:35 AM 68.0 °F 66.2 °F 94% 30.05 in 2.5 mi Variable 5.8 mph - 0.04 in Rain Heavy Rain
3:47 AM 68.0 °F 66.2 °F 94% 30.05 in 3.0 mi East 5.8 mph - 0.05 in Rain Light Rain
3:53 AM 68.0 °F 66.9 °F 96% 30.04 in 3.0 mi East 4.6 mph - 0.05 in Rain Light Rain
4:09 AM 68.0 °F 66.2 °F 94% 30.05 in 4.0 mi East 6.9 mph - 0.00 in   Overcast
4:31 AM 68.0 °F 66.2 °F 94% 30.05 in 5.0 mi East 5.8 mph - 0.00 in   Overcast
4:53 AM 68.0 °F 66.0 °F 93% 30.03 in 4.0 mi ESE 4.6 mph - 0.00 in   Overcast
5:17 AM 68.0 °F 66.2 °F 94% 30.05 in 3.0 mi Calm Calm - 0.00 in Rain Light Rain
5:25 AM 68.0 °F 66.2 °F 94% 30.05 in 3.0 mi Calm Calm - 0.00 in Rain Light Rain
5:33 AM 68.0 °F 66.2 °F 94% 30.05 in 2.5 mi Calm Calm - 0.01 in Rain Light Rain
5:44 AM 68.0 °F 66.2 °F 94% 30.05 in 3.0 mi Calm Calm - 0.01 in   Overcast
5:53 AM 68.0 °F 66.9 °F 96% 30.03 in 2.5 mi Calm Calm - 0.01 in   Overcast
6:17 AM 68.0 °F 66.2 °F 94% 30.05 in 3.0 mi Calm Calm - N/A   Overcast
6:25 AM 68.0 °F 66.2 °F 94% 30.05 in 3.0 mi Calm Calm - N/A   Overcast
6:42 AM 68.0 °F 66.2 °F 94% 30.05 in 3.0 mi Calm Calm - N/A   Overcast
6:53 AM 68.0 °F 66.9 °F 96% 30.04 in 3.0 mi Calm Calm - N/A   Overcast
7:18 AM 69.8 °F 66.2 °F 88% 30.06 in 2.5 mi Calm Calm - N/A   Overcast
7:45 AM 69.8 °F 66.2 °F 88% 30.06 in 2.0 mi Calm Calm - N/A   Overcast
7:53 AM 69.1 °F 66.9 °F 93% 30.05 in 2.0 mi Calm Calm - N/A   Overcast
8:28 AM 69.8 °F 68.0 °F 94% 30.07 in 3.0 mi Calm Calm - N/A   Overcast
8:53 AM 70.0 °F 68.0 °F 93% 30.05 in 3.0 mi Calm Calm - N/A   Overcast
9:10 AM 69.8 °F 68.0 °F 94% 30.07 in 3.0 mi Calm Calm - N/A   Overcast
9:31 AM 69.8 °F 68.0 °F 94% 30.07 in 2.5 mi Calm Calm - N/A   Overcast
9:42 AM 69.8 °F 68.0 °F 94% 30.07 in 3.0 mi Calm Calm - N/A   Overcast
9:53 AM 70.0 °F 68.0 °F 93% 30.06 in 2.5 mi Calm Calm - N/A   Overcast
10:01 AM 69.8 °F 68.0 °F 94% 30.08 in 3.0 mi Calm Calm - N/A   Overcast
10:14 AM 69.8 °F 68.0 °F 94% 30.08 in 2.5 mi Calm Calm - N/A   Overcast
10:53 AM 71.1 °F 69.1 °F 93% 30.06 in 2.5 mi Calm Calm - N/A   Overcast
11:01 AM 71.6 °F 69.8 °F 94% 30.08 in 4.0 mi Calm Calm - N/A   Overcast
11:11 AM 71.6 °F 68.0 °F 88% 30.07 in 5.0 mi Calm Calm - N/A   Overcast
11:19 AM 73.4 °F 69.8 °F 88% 30.07 in 5.0 mi Calm Calm - N/A   Mostly Cloudy
11:53 AM 73.9 °F 68.0 °F 82% 30.04 in 6.0 mi Calm Calm - N/A   Haze
12:01 PM 73.4 °F 69.8 °F 88% 30.06 in 7.0 mi Calm Calm - N/A   Overcast
12:53 PM 73.9 °F 68.0 °F 82% 30.03 in 10.0 mi Calm Calm - N/A   Mostly Cloudy
1:08 PM 75.2 °F 68.0 °F 78% 30.05 in 10.0 mi Calm Calm - N/A   Scattered Clouds
1:42 PM 75.2 °F 68.0 °F 78% 30.04 in 10.0 mi Calm Calm - N/A   Mostly Cloudy
1:53 PM 73.9 °F 68.0 °F 82% 30.02 in 10.0 mi Calm Calm - N/A   Mostly Cloudy
2:16 PM 75.2 °F 68.0 °F 78% 30.03 in 10.0 mi Calm Calm - N/A   Scattered Clouds
2:53 PM 73.9 °F 68.0 °F 82% 30.01 in 9.0 mi Calm Calm - N/A   Mostly Cloudy
3:53 PM 73.9 °F 69.1 °F 85% 29.99 in 9.0 mi Calm Calm - 0.00 in Rain Light Rain
4:53 PM 73.0 °F 70.0 °F 90% 29.98 in 8.0 mi Calm Calm - 0.00 in Rain Light Rain
5:53 PM 73.0 °F 70.0 °F 90% 29.98 in 4.0 mi Calm Calm - 0.01 in Rain Light Rain
6:53 PM 72.0 °F 70.0 °F 93% 29.98 in 3.0 mi Calm Calm - 0.01 in Rain Light Rain
7:50 PM 71.6 °F 69.8 °F 94% 29.99 in 2.5 mi Calm Calm - 0.00 in Rain Light Rain
7:53 PM 71.1 °F 69.1 °F 93% 29.97 in 3.0 mi Calm Calm - 0.00 in Rain Light Rain
8:03 PM 71.6 °F 69.8 °F 94% 29.99 in 2.5 mi Calm Calm - 0.00 in   Mostly Cloudy
8:19 PM 71.6 °F 69.8 °F 94% 30.00 in 3.0 mi Calm Calm - 0.00 in Rain Light Rain
8:53 PM 70.0 °F 69.1 °F 97% 29.98 in 5.0 mi Calm Calm - 0.00 in Rain Light Rain
9:53 PM 70.0 °F 69.1 °F 97% 30.00 in 4.0 mi Calm Calm - 0.01 in Rain Light Rain
10:22 PM 69.8 °F 68.0 °F 94% 30.02 in 2.5 mi Calm Calm - 0.09 in Rain Heavy Rain
10:31 PM 69.8 °F 68.0 °F 94% 30.02 in 3.0 mi Calm Calm - 0.11 in Rain Rain
10:53 PM 70.0 °F 68.0 °F 93% 30.00 in 3.0 mi Calm Calm - 0.13 in Rain Light Rain
11:48 PM 69.8 °F 66.2 °F 88% 30.01 in 1.8 mi Calm Calm - 0.16 in Rain Heavy Rain
11:53 PM 69.1 °F 66.9 °F 93% 29.99 in 2.0 mi Calm Calm - 0.19 in Rain Heavy Rain